Location: Kobowice
(50.5969°N, 19.4527°E)
Time: 15:05:45
(UTC+00:00)

Daily predictions for brighter satellites

Satellite Brightness Start Highest point End
(mag) Time Altitude Azimuth Time Altitude Azimuth Time Altitude Azimuth
Cosmos 1777 Rocket 4.1 15:08:19 10° SSW 15:13:35 89° ESE 15:18:51 10° NNE
Okean 1-7 Rocket 3.6 15:09:31 10° N 15:13:51 58° ENE 15:18:09 10° SSE
Cosmos 1076 Rocket 4.3 15:10:31 10° N 15:14:22 30° ENE 15:18:12 10° SE
Cosmos 1980 Rocket 3.1 15:10:47 10° SSE 15:15:40 31° ESE 15:20:33 10° NE
Cosmos 1354 Rocket 4.1 15:12:35 10° S 15:17:44 61° ESE 15:22:55 10° NNE
Cosmos 1953 Rocket 4.3 15:14:00 10° N 15:18:00 31° ENE 15:21:59 10° SE
Cosmos 2263 Rocket 2.2 15:13:25 10° NNW 15:19:04 61° ENE 15:24:41 10° SE
Cosmos 2219 3.5 15:14:43 10° NNW 15:20:16 46° NE 15:25:47 10° SE
Cosmos 1484 Rocket 2.4 15:17:51 10° SSE 15:21:19 67° ENE 15:24:46 10° N
Thor Agena Rocket 3.7 15:16:49 10° SE 15:21:49 52° ENE 15:26:47 10° N
IGS 5A 3.4 15:18:30 10° SSE 15:22:23 59° ENE 15:26:20 10° N
Cosmos 1825 Rocket 3.6 15:19:35 10° N 15:23:51 54° ENE 15:28:03 10° SSE
Cosmos 990 Rocket 4.0 15:25:09 10° S 15:30:14 66° ESE 15:35:22 10° NNE
Cosmos 2098 Rocket 3.7 15:25:44 10° SSW 15:30:22 72° WNW 15:35:47 10° N
Cosmos 2151 3.6 15:32:33 10° NNW 15:36:40 59° W 15:40:45 10° S
IRIDIUM 104 4.3 15:31:24 10° N 15:36:40 83° E 15:41:54 10° S
SL-16 R/B 2.5 15:32:31 10° NNE 15:38:46 78° ESE 15:44:58 10° SSW
Meteor 1-5 Rocket 4.1 15:33:31 10° N 15:38:53 64° ENE 15:44:23 10° SSE
NOSS 3-2 (A) 4.2 15:35:30 10° W 15:40:34 40° NNW 15:46:43 10° NE
Cosmos 1933 3.1 15:37:22 10° S 15:41:11 75° E 15:45:01 10° NNE
Cosmos 2227 Rocket 2.9 15:39:01 10° NW 15:44:34 59° WSW 15:50:06 10° S
NOSS 3-2 (C) 3.6 15:40:39 10° WSW 15:45:48 63° NW 15:51:59 11° NE
IRIDIUM 114 4.4 15:40:34 10° N 15:45:49 84° W 15:51:02 10° S
Cosmos-2242 3.9 15:43:59 10° SSE 15:47:34 27° E 15:51:09 10° NNE
Cosmos 2369 Rocket 4.4 15:45:42 10° NW 15:48:02 12° NNW 15:50:22 10° N
CZ-2D R/B 3.1 15:48:46 10° SE 15:51:45 41° ENE 15:54:44 10° N
Cosmos 1697 Rocket 2.9 15:47:56 10° SW 15:53:32 75° WNW 15:59:11 10° NNE
SMAP 3.0 15:49:16 10° SSE 15:53:55 78° ENE 15:58:36 10° NNW
IRS-P3 4.3 15:49:31 10° SE 15:54:36 48° ENE 15:59:41 10° N
BREEZE-M DEB (TANK) 3.1 15:53:08 10° W 15:56:03 69° S 16:04:47 10° ESE
CZ-2D R/B 4.5 15:53:37 10° ESE 15:56:56 24° ENE 16:00:14 10° N
Landsat 7 3.7 15:52:27 10° SSE 15:57:04 67° ENE 16:01:42 10° N
Cosmos 1606 Rocket 3.7 15:55:20 10° SSW 15:59:45 82° W 16:04:14 10° N
SJ-12 3.7 15:56:36 10° SSE 16:00:18 56° ENE 16:04:03 10° N
Cosmos 2058 Rocket 3.5 15:56:26 10° SSE 16:00:35 40° E 16:04:47 10° NNE
Aureole 1 Rocket 3.6 15:57:08 10° S 16:01:57 63° ESE 16:08:02 10° NNE
Meteor 1-28 Rocket 3.3 16:01:50 10° N 16:05:09 64° WNW 16:08:26 10° SSW
COSMOS 2455 3.8 16:00:19 10° SSE 16:05:17 27° ESE 16:08:17 18° ENE
ARIANE 5 R/B 2.4 16:00:15 10° SSE 16:05:20 77° ENE 16:10:32 10° NNW
Cosmos 1680 Rocket 3.8 16:01:36 10° NNW 16:06:36 43° ENE 16:11:35 10° SE
CENTAUR R/B 3.9 16:00:48 10° WNW 16:06:42 32° N 16:12:22 15° NE
GEOS 3 Rocket 4.3 16:03:07 17° ENE 16:06:51 39° ESE 16:11:51 10° SSW
Cosmos 1655 Rocket 4.0 16:00:39 10° N 16:06:55 85° E 16:13:08 10° S
NOSS 2-3 (C) 3.0 16:04:33 10° SW 16:08:00 86° NW 16:10:25 21° NE
Cosmos 1461 4.4 16:05:12 10° W 16:08:31 25° NW 16:11:28 12° NNE
MOS 1 Rocket 3.5 16:05:56 10° SSE 16:10:59 69° ENE 16:16:17 10° N
Cosmos 2333 Rocket 3.7 16:11:15 10° SE 16:14:33 16° E 16:14:33 16° E
NOSS 2-3 (D) 3.4 16:11:22 10° SW 16:15:02 66° NW 16:17:31 21° NE
Cosmos 2322 Rocket 4.1 16:14:04 10° ESE 16:15:06 12° ESE 16:15:06 12° ESE
NOSS 2-3 (E) 3.6 16:14:04 10° WSW 16:17:40 59° NW 16:20:06 21° NNE
Resurs 1-3 4.2 16:13:59 10° SE 16:17:48 32° ENE 16:21:39 10° N
Okean 1 3.4 16:14:44 10° SSE 16:18:08 42° E 16:19:42 26° NE
Meteor 2-20 4.4 16:12:29 10° S 16:18:38 78° E 16:24:46 10° NNE
Cosmos 1726 Rocket 3.9 16:15:41 10° SSW 16:20:16 70° WNW 16:24:48 10° N
PSLV R/B 4.1 16:23:37 22° ESE 16:25:21 31° ENE 16:28:59 10° N
YAOGAN 1 2.9 16:25:02 10° SE 16:29:01 41° ENE 16:33:02 10° N
Cosmos 1844 3.9 16:24:16 10° NNW 16:29:40 45° NE 16:33:47 16° ESE
USA 308 3.6 16:30:45 10° SSW 16:33:39 28° SE 16:33:56 28° SE
Cosmos 2082 4.0 16:29:23 10° NNW 16:35:07 73° WSW 16:40:48 10° SSE
USA 81 4.1 16:30:53 10° N 16:36:11 85° W 16:41:27 10° S
COSMO-SKYMED 1 3.3 16:37:35 29° ESE 16:37:35 29° ESE 16:40:36 10° SSE
Meteor 2-20 Rocket 4.3 16:33:13 10° S 16:39:19 80° E 16:45:15 10° NNE
SPOT 1/Viking Rocket 3.4 16:34:27 10° SSE 16:39:38 77° ENE 16:44:51 10° NNW
Gbstr 26 Del rocket 2.6 16:36:45 10° W 16:40:46 76° N 16:41:41 49° ENE
Meteor 1-14 Rocket 4.3 16:35:34 10° N 16:41:09 50° ENE 16:46:36 10° SSE
BREEZE-M DEB (TANK) 1.6 16:40:06 10° WSW 16:41:56 57° SSE 16:41:58 57° SSE
Nadezhda 2 Rocket 4.3 16:36:33 10° N 16:42:41 81° E 16:48:47 10° SSE
Lacrosse 5 rocket 1.4 16:40:15 10° NW 16:43:47 43° NNE 16:43:50 43° NNE
Meteor 1-11 Rocket 4.3 16:40:12 10° N 16:45:36 36° ENE 16:46:44 33° E
Cosmos 1553 Rocket 3.9 16:39:36 10° S 16:45:45 69° E 16:52:03 10° NNE
USA 238 DEB 3.7 16:41:55 10° SW 16:48:06 73° NW 16:52:20 25° NE
SL-16 R/B 2.7 16:43:01 10° S 16:48:08 37° ESE 16:48:52 35° E
S3M 4.4 16:42:26 10° SSE 16:48:09 37° E 16:50:08 30° NE
USA 238 3.7 16:41:59 10° SW 16:48:11 74° NW 16:52:25 25° NE
USA 215 3.6 16:45:50 28° ENE 16:49:05 51° N 16:55:24 10° WNW
Cosmos 2227 4.1 16:43:49 10° NNW 16:49:29 73° ENE 16:55:06 10° SE
Cosmos 372 Rocket 4.3 16:44:53 10° SW 16:49:59 64° WNW 16:53:46 18° NNE
Meteor 2-9 Rocket 4.3 16:44:58 10° N 16:50:06 45° ENE 16:55:10 10° SE
Cosmos 44 Rocket 3.3 16:45:13 10° NW 16:50:23 78° NE 16:53:36 24° SE
IRAS Rocket 4.1 16:47:40 10° SE 16:53:03 61° ENE 16:58:27 10° NNW
Cosmos 1805 4.0 16:50:03 10° NNW 16:53:16 44° W 16:56:28 10° SSW
Cosmos 1844 Rocket 2.6 16:47:58 10° NNW 16:53:39 69° ENE 16:58:25 15° SE
SKYMED 2 3.4 16:52:39 37° NNE 16:54:17 70° ESE 16:58:36 10° S
Cosmos 2237 4.2 16:48:59 10° SSW 16:54:39 67° ESE 16:57:05 35° NE
Cosmos 1709 Rocket 4.1 16:49:43 10° N 16:55:34 45° ENE 17:01:24 10° SE
Cosmos 2221 3.8 16:54:29 10° SSE 16:56:29 25° SSE 16:56:29 25° SSE
Cosmos 1536 2.5 16:54:57 10° N 17:00:38 27° SSE 17:02:25 10° SSE
Cosmos 1980 Rocket 2.8 16:53:53 10° SW 16:59:24 54° NW 17:03:17 20° NNE
BREEZE M DEB (TANK) 3.7 16:58:01 10° WSW 16:59:08 27° WSW 16:59:08 27° WSW
Meteor 2-6 Rocket 4.2 16:54:47 10° S 17:00:27 65° E 17:04:22 22° NNE
Cosmos 1745 Rocket 3.9 16:54:47 10° N 17:00:56 63° ENE 17:06:59 10° SSE
Cosmos 1898 Rocket 3.8 16:57:16 10° SW 17:02:23 63° WNW 17:05:40 22° NNE
Cosmos 2263 Rocket 4.4 16:57:54 10° NW 17:02:35 27° WSW 17:07:15 10° SSW
BREEZE-M DEB (TANK) 3.8 17:03:45 10° SW 17:06:01 28° SSW 17:06:01 28° SSW
Spot 4 Rocket 4.0 17:02:37 10° SSE 17:07:44 87° WSW 17:12:54 10° NNW
Cosmos 1943 Rocket 4.1 17:05:16 10° N 17:06:52 14° N 17:06:52 14° N
Cosmos 2112 Rocket 4.0 17:04:34 10° NNW 17:09:48 78° WSW 17:15:01 10° SSE
Cosmos 1937 Rocket 3.7 17:07:49 10° SSW 17:12:58 68° WNW 17:15:23 31° NNE
Cosmos 1386 Rocket 4.4 17:08:53 10° N 17:15:02 85° W 17:21:16 10° S
Cosmos 2278 3.8 17:09:46 10° S 17:15:08 51° ESE 17:15:08 51° ESE
USA 59 Rocket 2.1 17:12:33 10° S 17:12:54 12° S 17:12:54 12° S
Cosmos 858 Rocket 4.4 17:13:02 10° SSW 17:18:13 82° WNW 17:19:47 46° NNE
SWAS 4.4 17:14:27 10° SSW 17:18:08 73° SW 17:18:08 73° SW
Cosmos 494 Rocket 4.1 17:14:25 10° NNW 17:19:41 77° WSW 17:24:53 10° SSE
EXPRESS MD2 4.1 17:17:25 10° WSW 17:19:11 38° WSW 17:19:11 38° WSW
SL-16 R/B 4.4 17:16:50 10° N 17:21:45 25° NW 17:26:38 10° WSW
Cosmos 2369 4.1 17:18:24 10° SW 17:24:03 59° NW 17:26:40 32° NNE
Cosmos 1417 Rocket 4.3 17:18:29 10° S 17:24:37 76° E 17:27:48 30° NNE
Cosmos 2360 Rocket 3.5 17:26:22 10° S 17:28:57 25° SSE 17:28:57 25° SSE
Resurs 01 Rocket 4.1 17:37:36 11° N 17:37:36 11° N 17:37:48 10° N
Cosmos 1048 Rocket 4.0 17:30:15 10° NNW 17:35:09 74° N 17:35:09 74° N
EO 1 Delta rocket 4.2 17:38:03 77° ENE 17:38:03 77° ENE 17:44:31 10° N
USA 281 4.5 17:42:56 25° NNE 17:42:56 25° NNE 17:46:25 10° NNW
GEOS 3 Rocket 4.1 17:44:10 52° N 17:44:58 57° NW 17:50:13 10° WSW
SL-24 R/B - RUBIN 2 4.4 17:44:32 10° WSW 17:49:24 55° WNW 17:49:24 55° WNW
COSMOS 2455 3.0 17:44:44 10° SW 17:50:44 69° NW 17:51:27 63° N
Cosmos 2278 Rocket 4.2 17:47:52 10° NNW 17:49:15 15° N 17:49:15 15° N
Cosmos 2333 Rocket 2.7 17:52:18 10° SSW 17:56:36 53° SSW 17:56:36 53° SSW
CENTAUR R/B 3.8 17:52:42 10° NW 17:59:27 36° NNE 17:59:27 36° NNE
Cosmos 2322 Rocket 3.3 17:53:49 10° SSW 17:56:57 34° S 17:56:57 34° S
Lacrosse 5 rocket 4.4 18:17:20 10° WNW 18:17:25 11° WNW 18:17:25 11° WNW
USA 215 3.8 18:33:11 50° NW 18:33:11 50° NW 18:38:08 10° WNW
SL-16 R/B 3.4 18:26:40 10° SW 18:30:45 39° W 18:30:45 39° W
Cosmos 1980 Rocket 4.5 18:41:15 10° WNW 18:44:43 16° NNW 18:45:02 16° NNW
